Location: Bronschhofen
(47.4788°N, 9.0353°E)
Time: 19:49:06
(UTC+00:00)

MOS 1 Rocket - Pass Details

Date: 20 May 2022
Orbit: 615 x 827 km, 97.5° (Epoch: 01 July)

Event Time Altitude Azimuth Distance (km) Brightness Sun altitude
Exits shadow 02:26:18 15° 220° (SW) 1,694 4.6 -10.7°
Maximum altitude 02:28:53 25° 267° (W) 1,269 4.3 -10.4°
Drops below altitude 10° 02:32:26 10° 322° (NW) 1,987 5.8 -10.0°
Sets 02:34:57 0° 336° (NNW) 2,900 6.8 -9.7°
